Regional Weather Roundup
Issued by NWS

Home | Current Version | Previous Version | Text Only | Print | Product List | Glossary Off
Versions: 1 2 3 4 5 6 7 8 9 10 11 12 13 14 15 16 17 18 19 20 21 22 23 24 25 26 27 28 29 30 31 32 33 34 35 36 37 38 39 40 41 42 43 44 45 46 47 48 49 50

000
ASUS44 KMEG 220100
RWRTN
TENNESSEE HOURLY STATE WEATHER ROUNDUP
NATIONAL WEATHER SERVICE MEMPHIS TN
700 PM CST TUE FEB 21 2017

TNZ002-004-019-021-049-052-054-088>092-220200-
WEST TENNESSEE

CITY           SKY/WX    TMP DP  RH WIND       PRES   REMARKS
MEMPHIS INTL   CLOUDY    62  59  90 SE3       29.88R
NWS MEMPHIS      N/A     61 N/A N/A MISG        N/A
JACKSON        CLOUDY    61  60  97 CALM      29.91R
UNION CITY     MOCLDY   N/A N/A N/A CALM      29.91S
PARIS          CLOUDY    59  55  88 CALM      29.92S
$$

TNZ008-025-027-028-033-062-065-066-220200-
NORTH MIDDLE TENNESSEE

CITY           SKY/WX    TMP DP  RH WIND       PRES   REMARKS
NASHVILLE      LGT RAIN  60  56  86 S6        29.97R
CLARKSVILLE    CLOUDY    63  53  70 S10       29.93R
SMYRNA         LGT RAIN  58  56  93 CALM      29.97S
CROSSVILLE     MOCLDY    53  51  93 S3        30.01F
$$

TNZ061-075-076-078-094-096-097-220200-
SOUTH MIDDLE TENNESSEE

CITY           SKY/WX    TMP DP  RH WIND       PRES   REMARKS
TULLAHOMA      CLOUDY    57  54  88 SE7       29.96F
WINCHESTER     CLOUDY    57  54  88 SE13      29.96S
MCMINNVILLE    CLOUDY    59  55  88 CALM      29.97S
COLUMBIA       CLOUDY   N/A N/A N/A E5        29.92F
SHELBYVILLE    CLOUDY    57  57 100 E3        29.96F
$$

TNZ017-018-042-046-047-220200-
NORTHEAST TENNESSEE

CITY           SKY/WX    TMP DP  RH WIND       PRES   REMARKS
TRI CITIES     DRIZZLE   61  44  53 SE5       30.05S
$$

TNZ012-013-036-069-073-074-220200-
CENTRAL EAST TENNESSEE

CITY           SKY/WX    TMP DP  RH WIND       PRES   REMARKS
KNOXVILLE      CLOUDY    63  46  54 NW5       29.99S
OAK RIDGE      CLOUDY    62  50  64 CALM      30.01F
GATLINBURG     PTCLDY    61  45  55 CALM      29.99F
$$

TNZ083-085-099-220200-
SOUTHEAST TENNESSEE

CITY           SKY/WX    TMP DP  RH WIND       PRES   REMARKS
CHATTANOOGA    CLOUDY    58  56  93 CALM      30.00S FOG
$$

SKY/WX REPORTED AS FAIR MEANS FEW OR NO CLOUDS BELOW
12 THOUSAND FEET.




USA.gov is the U.S. government's official web portal to all federal, state and local government web resources and services.